Tracking 20626 objects as of 10-Apr-2020
HD Live streaming from Space Station
objects crossing your sky now

PEGASUS DEB

Track PEGASUS DEB now!
10-day predictions


NORAD ID: 24378
Int'l Code: 1994-029QF
Perigee: 597.9 km
Apogee: 845.6 km
Inclination: 82.0 °
Period: 99.1 minutes
Semi major axis: 7092 km
RCS: 0.0424 m2 (small)
Launch date: May 19, 1994
Source: United States (US)
Launch site: AIR FORCE WESTERN TEST RANGE (AFWTR)

Note: This is SATELLITE DEBRIS
aabbcc
Your satellite tracking list
Your tracking list is empty




NASA's NSSDC Master Catalog

Two Line Element Set (TLE):
1 24378U 94029QF  20100.83253345 +.00000088 +00000-0 +12918-4 0  9995
2 24378 082.0299 246.9890 0174636 042.0822 319.3634 14.53377246370044
Source of the keplerian elements: AFSPC